Location: Lake Arresoe
(56.0000°N, 12.5000°E)
Time: 12:32:23
(UTC+02:00)

Okean 3 - Visible Passes

Search period start: 27 June 2017 00:00
Search period end: 07 July 2017 00:00
Orbit: 578 x 602 km, 82.5° (Epoch: 26 June)

Date Brightness Start Highest point End Pass type
(mag) Time Alt. Az. Time Alt. Az. Time Alt. Az.
27 Jun 4.5 01:59:16 10° N 02:03:23 43° ENE 02:07:25 10° SE visible
28 Jun 6.2 00:32:00 10° NNE 00:33:27 11° NE 00:34:53 10° ENE visible
28 Jun 3.9 02:07:28 10° N 02:11:42 60° ENE 02:15:52 10° SSE visible
29 Jun 6.0 00:39:32 10° NNE 00:41:58 15° NE 00:44:23 10° E visible
29 Jun 3.5 02:15:42 10° N 02:20:00 82° E 02:24:13 10° SSE visible
30 Jun 5.8 00:47:23 10° NNE 00:50:27 19° ENE 00:53:28 10° ESE visible
30 Jun 3.5 02:23:59 10° NNW 02:28:15 73° W 02:32:22 10° S visible
01 Jul 5.4 00:55:23 10° N 00:58:53 24° ENE 01:02:22 10° ESE visible
01 Jul 3.8 02:32:19 10° NNW 02:36:28 52° W 02:40:20 11° S visible
02 Jul 4.9 01:03:28 10° N 01:07:18 31° ENE 01:11:05 10° SE visible
02 Jul 4.2 02:40:43 10° NNW 02:44:38 38° W 02:48:19 11° SSW visible
03 Jul 4.4 01:11:36 10° N 01:15:40 42° ENE 01:19:40 10° SE visible
03 Jul 4.7 02:49:10 10° NNW 02:52:47 28° W 02:56:19 10° SSW visible
03 Jul 6.1 23:44:29 10° NE 23:45:43 11° NE 23:46:57 10° ENE visible
04 Jul 3.9 01:19:47 10° N 01:23:59 58° ENE 01:27:48 12° SSE visible
04 Jul 5.1 02:57:44 10° NW 03:00:54 21° W 03:04:02 10° SW visible
04 Jul 5.9 23:51:55 10° NNE 23:54:15 14° NE 23:56:33 10° E visible
05 Jul 3.5 01:28:01 10° N 01:32:17 80° ENE 01:35:49 14° SSE visible
05 Jul 5.5 03:06:28 10° NW 03:08:58 16° W 03:11:27 10° WSW visible
05 Jul 5.6 23:59:45 10° NNE 00:02:43 18° ENE 00:05:40 10° ESE visible
06 Jul 3.5 01:36:17 10° NNW 01:40:33 75° W 01:43:52 16° S visible
06 Jul 5.7 03:15:38 10° WNW 03:17:00 11° W 03:18:22 10° W visible
